EW1914 Weather Reports


Display with metric or nautical units.
time (UTC)temp
F
wind
direction
speed
MPH
gust
MPH
rain 1hr
in
rain 24hr
in
rain mn
in
humidity
%
barometer
mb
20260509051001 62 0.0 0.0 0.00 0.00 0.00 70 1021.5
20260509045000 62 0.0 0.0 0.00 0.00 0.00 68 1021.3
20260509044000 62 0.0 0.0 0.00 0.00 0.00 68 1021.2
20260509043001 63 0.0 0.0 0.00 0.00 0.00 67 1021.1
20260509042000 63 0.0 0.0 0.00 0.00 0.00 67 1021.0
20260509041000 63 0.0 0.0 0.00 0.00 0.00 67 1020.9
20260509040000 64 0.0 0.0 0.00 0.00 0.00 66 1020.9
20260509035000 64 0.0 0.0 0.00 0.00 0.00 65 1020.8
20260509033959 65 0.0 0.0 0.00 0.00 0.00 64 1020.6
20260509033000 65 0.0 0.0 0.00 0.00 0.00 63 1020.5
20260509031959 65 0.0 0.0 0.00 0.00 0.00 62 1020.4
20260509030959 65 0.0 0.0 0.00 0.00 0.00 61 1020.4
20260509030000 66 0.0 0.0 0.00 0.00 0.00 61 1020.3
20260509024959 66 0.0 0.0 0.00 0.00 0.00 59 1020.3
20260509023001 66 0.0 0.0 0.00 0.00 0.00 58 1020.0
20260509022000 67 0.0 0.0 0.00 0.00 0.00 58 1020.1
20260509020958 67 0.0 0.0 0.00 0.00 0.00 57 1020.1
20260509020000 68 0.0 0.0 0.00 0.00 0.00 56 1020.1
20260509014959 68 0.0 0.0 0.00 0.00 0.00 55 1020.0
20260509013959 68 0.0 0.0 0.00 0.00 0.00 54 1020.0
20260509013000 69 0.0 0.0 0.00 0.00 0.00 54 1020.1
20260509010012 70 0.0 0.0 0.00 0.00 0.00 51 1020.2
20260509004959 70 0.0 0.0 0.00 0.00 0.00 50 1020.1
20260509003958 71 0.0 0.0 0.00 0.00 0.00 50 1020.2
20260509003000 71 0.0 0.0 0.00 0.00 0.00 50 1020.3
20260509000000 70 0.0 0.0 0.00 0.00 0.00 52 1020.3
20260508234959 70 0.0 0.0 0.00 0.00 0.00 50 1020.5
20260508233959 70 0.0 0.0 0.00 0.00 0.00 51 1020.4
20260508233000 70 0.0 0.0 0.00 0.00 0.00 49 1020.4
20260508231959 70 0.0 0.0 0.00 0.00 0.00 48 1020.4
20260508230959 70 0.0 0.0 0.00 0.00 0.00 52 1020.4
20260508223958 69 0.0 0.0 0.00 0.00 0.00 50 1020.4
20260508223000 69 0.0 0.0 0.00 0.00 0.00 50 1020.5
20260508221958 69 0.0 0.0 0.00 0.00 0.00 53 1020.7
20260508220007 68 0.0 0.0 0.00 0.00 0.00 54 1020.7
20260508215000 67 0.0 0.0 0.00 0.00 0.00 51 1020.8
20260508213959 67 0.0 0.0 0.00 0.00 0.00 55 1020.7
20260508213002 66 0.0 0.0 0.00 0.00 0.00 54 1020.8
20260508212000 66 0.0 0.0 0.00 0.00 0.00 53 1020.9
20260508211000 66 0.0 0.0 0.00 0.00 0.00 56 1020.9
20260508205000 65 0.0 0.0 0.00 0.00 0.00 57 1020.9
20260508203000 64 0.0 0.0 0.00 0.00 0.00 57 1021.0
20260508201959 64 0.0 0.0 0.00 0.00 0.00 56 1021.1
20260508200959 63 0.0 0.0 0.00 0.00 0.00 58 1021.1
20260508200002 63 0.0 0.0 0.00 0.00 0.00 61 1021.0
20260508194959 62 0.0 0.0 0.00 0.00 0.00 59 1021.2
20260508193959 62 0.0 0.0 0.00 0.00 0.00 59 1021.2
20260508193000 62 0.0 0.0 0.00 0.00 0.00 61 1021.2
20260508191959 61 0.0 0.0 0.00 0.00 0.00 65 1021.1
20260508191000 60 0.0 0.0 0.00 0.00 0.00 62 1021.4
20260508190002 60 0.0 0.0 0.00 0.00 0.00 61 1021.5
20260508184959 60 0.0 0.0 0.00 0.00 0.00 62 1021.5
20260508183959 59 0.0 0.0 0.00 0.00 0.00 63 1021.3
20260508183001 59 0.0 0.0 0.00 0.00 0.00 65 1021.4
20260508181958 58 0.0 0.0 0.00 0.00 0.00 66 1021.3
20260508180002 58 0.0 0.0 0.00 0.00 0.00 68 1021.2
20260508173958 57 0.0 0.0 0.00 0.00 0.00 72 1021.1
20260508173000 56 0.0 0.0 0.00 0.00 0.00 73 1021.0
20260508171959 56 0.0 0.0 0.00 0.00 0.00 72 1020.9
20260508170958 56 0.0 0.0 0.00 0.00 0.00 72 1020.9
20260508165958 56 0.0 0.0 0.00 0.00 0.00 73 1020.6
20260508164958 56 0.0 0.0 0.00 0.00 0.00 74 1020.5
20260508162959 55 0.0 0.0 0.00 0.00 0.00 77 1020.4
20260508161959 55 0.0 0.0 0.00 0.00 0.00 76 1020.6
20260508160959 55 0.0 0.0 0.00 0.00 0.00 77 1020.2
20260508160002 54 0.0 0.0 0.00 0.00 0.00 77 1020.3
20260508154958 54 0.0 0.0 0.00 0.00 0.00 79 1020.2
20260508153959 54 0.0 0.0 0.00 0.00 0.00 78 1020.1
20260508153001 54 0.0 0.0 0.00 0.00 0.00 79 1020.1
20260508152000 53 0.0 0.0 0.00 0.00 0.00 80 1020.3
20260508150959 53 0.0 0.0 0.00 0.00 0.00 80 1020.3
20260508150004 53 0.0 0.0 0.00 0.00 0.00 79 1020.4
20260508144958 53 0.0 0.0 0.00 0.00 0.00 81 1020.4
20260508143958 53 0.0 0.0 0.00 0.00 0.00 81 1020.5
20260508142959 52 0.0 0.0 0.00 0.00 0.00 82 1020.5
20260508140958 52 0.0 0.0 0.00 0.00 0.00 84 1020.1
20260508140002 52 0.0 0.0 0.00 0.00 0.00 84 1019.9
20260508134958 52 0.0 0.0 0.00 0.00 0.00 84 1019.6
20260508133958 52 0.0 0.0 0.00 0.00 0.00 83 1019.6
20260508133000 52 0.0 0.0 0.00 0.00 0.00 83 1019.2
20260508131958 52 0.0 0.0 0.00 0.00 0.00 83 1019.0
20260508130959 52 0.0 0.0 0.00 0.00 0.00 82 1018.8
20260508124959 52 0.0 0.0 0.00 0.00 0.00 82 1018.4
20260508123958 53 0.0 0.0 0.00 0.00 0.00 82 1018.4
20260508122959 53 0.0 0.0 0.00 0.00 0.00 82 1018.2
20260508121958 53 0.0 0.0 0.00 0.00 0.00 82 1018.3
20260508120958 53 0.0 0.0 0.00 0.00 0.00 83 1018.0
20260508115958 53 0.0 0.0 0.00 0.00 0.00 83 1018.1
20260508114956 53 0.0 0.0 0.00 0.00 0.00 83 1017.9
20260508113956 53 0.0 0.0 0.00 0.00 0.00 82 1018.0
20260508112959 53 0.0 0.0 0.00 0.00 0.00 82 1017.7
20260508111957 53 0.0 0.0 0.00 0.00 0.00 82 1017.6
20260508110957 53 0.0 0.0 0.00 0.00 0.00 82 1017.4
20260508105958 53 0.0 0.0 0.00 0.00 0.00 81 1017.3
20260508104956 54 0.0 0.0 0.00 0.00 0.00 81 1017.2
20260508102959 54 0.0 0.0 0.00 0.00 0.00 81 1017.0
20260508100958 54 0.0 0.0 0.00 0.00 0.00 79 1017.0
20260508100001 54 0.0 0.0 0.00 0.00 0.00 79 1016.9
20260508094958 54 0.0 0.0 0.00 0.00 0.00 79 1016.7
20260508093000 55 0.0 0.0 0.00 0.00 0.00 78 1016.5
20260508091957 55 0.0 0.0 0.00 0.00 0.00 78 1016.5
20260508090959 55 0.0 0.0 0.00 0.00 0.00 77 1016.5
20260508090004 55 0.0 0.0 0.00 0.00 0.00 76 1016.4
20260508084957 55 0.0 0.0 0.00 0.00 0.00 76 1016.3
20260508083958 56 0.0 0.0 0.00 0.00 0.00 76 1016.2
20260508081959 56 0.0 0.0 0.00 0.00 0.00 75 1016.2
20260508081005 56 0.0 0.0 0.00 0.00 0.00 75 1016.1
20260508080002 56 0.0 0.0 0.00 0.00 0.00 74 1016.1
20260508073959 57 0.0 0.0 0.00 0.00 0.00 72 1016.0
20260508073001 57 0.0 0.0 0.00 0.00 0.00 72 1016.0
20260508071958 58 0.0 0.0 0.00 0.00 0.00 72 1016.0
20260508070958 58 0.0 0.0 0.00 0.00 0.00 70 1016.0
20260508070006 58 0.0 0.0 0.00 0.00 0.00 69 1015.9
20260508065000 58 0.0 0.0 0.00 0.00 0.00 68 1016.0
20260508063001 59 0.0 0.0 0.00 0.00 0.00 66 1015.9
20260508062001 59 0.0 0.0 0.00 0.00 0.00 65 1015.9
20260508061000 60 0.0 0.0 0.00 0.00 0.00 65 1015.8
20260508055002 60 0.0 0.0 0.00 0.00 0.00 65 1015.9
20260508053001 61 0.0 0.0 0.00 0.00 0.00 64 1015.9
20260508052000 61 0.0 0.0 0.00 0.00 0.00 64 1015.8